Location: Altavilla Irpina
(41.0000°N, 14.7833°E)
Time: 18:52:10
(UTC+00:00)

Cosmos 2123 Rocket - Pass Details

Date: 19 May 2025
Orbit: 960 x 991 km, 82.9° (Epoch: 13 December)

Event Time Altitude Azimuth Distance (km) Brightness Sun altitude
Exits shadow 23:31:33 67° 125° (SE) 1,070 4.0 -28.5°
Maximum altitude 23:32:02 70° 94° (E) 1,051 4.0 -28.5°
Drops below altitude 10° 23:38:20 10° 12° (NNE) 2,761 7.3 -28.3°
Sets 23:40:52 0° 10° (N) 3,712 8.3 -28.2°
